Regional Weather Roundup
Issued by NWS

Home | Current Version | Previous Version | Text Only | Print | Product List | Glossary On
Versions: 1 2 3 4 5 6 7 8 9 10 11 12 13 14 15 16 17 18 19 20 21 22 23 24 25 26 27 28 29 30 31 32 33 34 35 36 37 38 39 40 41 42 43 44 45 46 47 48 49 50
000
ASUS46 KLOX 041113
RWRCA

SOUTHERN CALIFORNIA WEATHER ROUNDUP
NATIONAL WEATHER SERVICE OXNARD CALIFORNIA
400 AM PDT FRI SEP 04 2015

NOTE: "FAIR" INDICATES FEW OR NO CLOUDS BELOW 12,000 FEET WITH NO
SIGNIFICANT WEATHER AND/OR OBSTRUCTIONS TO VISIBILITY.

  -  STATIONS PRECEEDED BY AN ASTERISK (*) ARE NOT NWS OR FAA
     STATIONS AND ARE NOT SUBJECT TO NWS AND FAA QUALITY CONTROL.

CAZ041-042-087-041200-
LA AND ORANGE COUNTY COASTAL AREAS


CITY           SKY/WX    TMP DP  RH WIND       PRES   REMARKS
L.A. DOWNTOWN  CLOUDY    68  57  68 E3        29.85S
L.A. AIRPORT   CLOUDY    67  59  75 E5        29.86S
LONG BEACH     NOT AVBL

CITY           SKY/WX    TMP DP  RH WIND       PRES   REMARKS
AVALON           N/A     64 N/A N/A SE2         N/A
FULLERTON      MOCLDY    68  58  70 SE3       29.85S
*GETTY CENTER    N/A     61  55  82 E3          N/A
HAWTHORNE      CLOUDY    69  59  70 E3        29.85F
*LEO CARRILLO    N/A     63  55  76 NW5         N/A
*LOS ALAMITOS  CLOUDY    68  58  70 SE7       29.85S
*REDONDO BEACH   N/A     66  58  75 CALM      29.85F
SANTA ANA      CLOUDY    68  57  68 S6        29.85F
STA MONICA APT CLOUDY    68  58  70 E5        29.86S
*STA MON PIER    N/A     68  60  75 CALM      29.84F
*UCLA            N/A     64  55  72 CALM      29.83S

$$

CAZ547-548-048-041200-
LA COUNTY VALLEYS AND INLAND EMPIRE


CITY           SKY/WX    TMP DP  RH WIND       PRES   REMARKS
BURBANK        CLOUDY    67  57  70 SE6       29.86S
VAN NUYS       CLOUDY    66  56  70 VRB6      29.86S

CITY           SKY/WX    TMP DP  RH WIND       PRES   REMARKS
CORONA AIRPORT CLOUDY    60  56  87 CALM      29.88S
*CHATSWORTH      N/A     65  57  74 CALM      29.86S
CHINO          CLOUDY    65  58  78 NW5       29.88F
*CLAREMONT       N/A     61  58  89 W3          N/A
MARCH AFB      CLEAR     59  58  97 S3        29.88S
*NORTHRIDGE      N/A     64  54  68 E3          N/A
ONTARIO        CLOUDY    64  56  75 W8        29.87F
*PASADENA        N/A     64  59  82 E2          N/A
RIVERSIDE      CLOUDY    63  57  81 CALM      29.87F
SAN BERNARDINO NOT AVBL
*SAN GABRIEL     N/A     68  60  75 NE3       29.92F
*SAN RAFAEL HI   N/A     60  57  89 S3          N/A
*SAUGUS          N/A     59  56  90 S5          N/A
*WHITEMAN AP   NOT AVBL
*WHITTIER HILL   N/A     62  59  89 NW3         N/A
*WOODLAND HILL   N/A     64  55  72 E2          N/A

$$

CAZ054-055-041200-
LA AND SAN BERNARDINO COUNTY MOUNTAINS


CITY           SKY/WX    TMP DP  RH WIND       PRES   REMARKS
*BIG BEAR AIRP SUNNY     50  32  50 SW5       30.06S
*CHILAO          N/A     56  20  24 E9G23       N/A
SANDBERG       CLEAR     55  41  59 S9        29.96S
*WARM SPRINGS    N/A     53  46  78 W8          N/A

$$

CAZ028-029-059-060-099-041200-
ANTELOPE VALLEY AND SURROUNDING AREAS


CITY           SKY/WX    TMP DP  RH WIND       PRES   REMARKS
LANCASTER      CLEAR     61  44  53 W14       29.86S
PALMDALE       CLEAR     57  48  72 CALM      29.86F
*POPPY PARK      N/A     59  43  56 SW9         N/A

CITY           SKY/WX    TMP DP  RH WIND       PRES   REMARKS
29 PALMS       CLEAR     74  55  51 SW9       29.86S
BARSTOW/DAGGET CLEAR     68  38  33 W13       29.82S
BISHOP         CLEAR     60  31  33 W7        29.83S
CHINA LAKE     CLEAR     69  43  38 S15       29.78S
EDWARDS AFB    CLEAR     59  42  53 S8        29.83S
MOJAVE         CLEAR     64  46  52 SW9       29.86S
NEEDLES        CLEAR     85  60  42 S10       29.75F
VICTORVILLE    CLEAR     55  46  71 CALM      29.88S

$$

CAZ039-040-041200-
VENTURA AND SANTA BARBARA COUNTY COAST


CITY           SKY/WX    TMP DP  RH WIND       PRES   REMARKS
CAMARILLO      MOCLDY    64  56  75 CALM      29.84S
NWS OXNARD       N/A     61  56  82 CALM      29.84S
OXNARD AIRPORT MOCLDY    62  56  80 NE3       29.84S
*POINT MUGU    PTCLDY    62  56  80 N5        29.85S
SBA APT/GOLETA CLEAR     64  55  72 NE6       29.83S
*SANTA BARBARA   N/A     67  57  71 CALM      29.91S
*VENTURA         N/A     62  56  82 CALM      29.47S

$$

CAZ044-045-041200-
VENTURA COUNTY VALLEYS


CITY           SKY/WX    TMP DP  RH WIND       PRES   REMARKS
*SIMI VALLEY     N/A     63  57  80 CALM      29.81S
*OJAI            N/A     53  50  90 CALM      29.80S
*FILLMORE        N/A     57  53  86 W2        29.76S

$$

CAZ053-041200-
VENTURA COUNTY MOUNTAINS


CITY           SKY/WX    TMP DP  RH WIND       PRES   REMARKS
*LOCKWOOD VLY    N/A     37  32  81 CALM        N/A
*ROSE VALLEY     N/A     37  39 100 MISG        N/A

$$

CAZ034-035-036-041200-
CENTRAL COAST AND SANTA YNEZ VALLEY


CITY           SKY/WX    TMP DP  RH WIND       PRES   REMARKS
SAN LUIS OBISP CLOUDY    58  51  78 E6        29.87S
SANTA MARIA    CLOUDY    58  54  86 S3        29.88S

CITY           SKY/WX    TMP DP  RH WIND       PRES   REMARKS
*CAL POLY SLO    N/A     57  55  94 CALM        N/A
*LOMPOC        CLOUDY    54  46  76 E3        29.89S
*PISMO BEACH     N/A     60  55  83 SE1       29.88R
*SANTA YNEZ    CLOUDY    55  52  88 CALM      29.89S

$$

CAZ037-038-051-041200-
SAN LUIS OBISPO COUNTY INTERIOR AND CUYAMA VALLEY


CITY           SKY/WX    TMP DP  RH WIND       PRES   REMARKS
*CUYAMA          N/A     53  45  74 CALM      29.80S
PASO ROBLES    CLEAR     54  49  83 W3        29.87R

$$

CAZ032-033-061-041200-
SOUTHERN DESERTS


CITY           SKY/WX    TMP DP  RH WIND       PRES   REMARKS
BLYTHE         CLEAR     83  66  56 S6        29.73S
IMPERIAL       CLEAR     84  70  62 CALM      29.69R
PALM SPRINGS   CLEAR     76  54  46 N6        29.75F
THERMAL        CLEAR     79  51  37 N8        29.69S

$$

ELSEWHERE ACROSS THE WESTERN UNITED STATES AND MEXICO


CITY           SKY/WX    TMP DP  RH WIND       PRES   REMARKS
DEATH VALLEY,    N/A     84  31  15 CALM        N/A
DENVER, CO     PTCLDY    57  50  77 S14       29.99R
GRAND CANYON,  MOCLDY    55  51  86 CALM      30.15R
HONOLULU, HI   MOCLDY    77  72  83 CALM      29.87F
KAHULUI, MAUI  CLEAR     79  73  83 SE3       29.88F
LAKE TAHOE, CA CLEAR     39  32  76 CALM      29.96F
LAS VEGAS, NV  CLEAR     79  36  21 S3        29.74R
MAMMOTH LAKES, FAIR      43  32  65 SE7       30.00S
MEXICO CITY, M CLOUDY    59  55  88 NE5       30.27S
PHOENIX, AZ    PTCLDY    78  64  61 SE3       29.82S
PORTLAND, OR   CLOUDY    52  50  93 N3        29.98F
RENO, NV       PTCLDY    54  37  52 CALM      29.88S
SALT LAKE CITY PTCLDY    74  36  25 S16       29.82R
SAN DIEGO, CA  MOCLDY    70  58  65 CALM      29.87S
SAN FRANCISCO, PTCLDY    57  49  74 SW8       29.84S
SAN JOSE, CA   CLEAR     57  52  83 SE9       29.84S
SEATTLE, WA    PTCLDY    50  48  93 N3        29.99F
TIJUANA, MEX   MOCLDY    66  55  68 CALM      29.89F

$$

STATION/POSITION TIME  TEMP    WIND        PRES    VSBY  WAVE
                       AIR SEA DIR/SP/G                  HT/PER
                 (UTC) (F)     (DEG/KT/KT) (MB)    (MI)  (FT/S)
POINT ARGUELLO B NOT AVBL
WEST SANTA BARBA 1050   63 66  340/ 17/ 21 1010.1R         6/11
POINT CONCEPTION NOT AVBL
EAST SANTA BARBA 1000   69 71  130/  2/  4 1010.3F
SANTA MONICA BAY 1050   69 72   80/  8/  8 1010.3F         3/11



USA.gov is the U.S. government's official web portal to all federal, state and local government web resources and services.